User: anonymous   Login
Location: Scultetus-Sternwarte G�rlitz
(51.1356°N, 14.9514°E)
Time: 13:07:08
(UTC+01:00)
Language:

Iridium 3 - Orbit

View from above orbital plane
View from above orbital plane
View from above satellite
View from above satellite

Ground track
Ground track

The orbit data is extracted from the following two-line orbital elements,

1 25431U 98048A   14327.42515764  .00000522  00000-0  17945-3 0  9768
2 25431 086.3958 287.2294 0002213 106.7734 005.1135 14.34224397851341
Epoch (UTC): 23 November 2014 10:12:13
Eccentricity: 0.0002213
inclination: 86.3958°
perigee height: 776 km
apogee height: 779 km
right ascension of ascending node: 287.2294°
argument of perigee: 106.7734°
revolutions per day: 14.34224397
mean anomaly at epoch: 5.1135°
orbit number at epoch: 85134

The dashed part of the orbit path shows where the satellite is in the earth's shadow,  

DLR